Preview of NWS' New Version of Forecast
This preview is not operational and should not be used for support decisions.

Regional Weather Roundup (RWR)

Issued by Midland/Odessa (MAF)

                            
501 
ASUS44 KMAF 212310
RWRMAF
MIDLAND AREA WEATHER ROUNDUP
NATIONAL WEATHER SERVICE MIDLAND TX
600 PM CDT THU JUN 21 2018

...IN SOUTHWEST TEXAS AND SOUTHEAST NEW MEXICO...
  
CITY           SKY/WX    TMP DP  RH WIND       PRES   REMARKS
ALPINE         SUNNY     90  52  27 E7        30.13S                  
ANDREWS        FAIR      92  59  32 SE7       30.00F                  
ARTESIA        PTSUNNY   93  57  29 SE13      29.98F                  
BIG SPRING     MOSUNNY   96  56  25 N6        29.96F                  
CARLSBAD       PTSUNNY   95  55  26 SE13      29.96F                  
DRYDEN           N/A     99  58  25 NE13G22   29.90F                  
FORT STOCKTON  SUNNY     94  57  28 VRB6      29.97F                  
GUAD PASS      MOSUNNY   90  51  26 E13G22    30.15F                  
HOBBS          MOSUNNY   91  57  31 SE9       30.02F                  
LAMESA         FAIR      95  57  28 N5        29.98F                  
MARFA          SUNNY     90  52  27 MISG        N/A                   
MIDLAND AIRPK    N/A    101  61  26 CALM      29.97F HX 102           
MIDLAND INTL   SUNNY     96  58  27 E7        29.96F                  
ODESSA         SUNNY     94  55  26 VRB7      29.98F                  
PECOS          SUNNY     95  57  27 SE7       29.94F                  
PRESIDIO       FAIR     100  52  20 E13G23    29.93F                  
SEMINOLE       SUNNY     93  56  28 S3        30.02S                  
SNYDER         SUNNY     95  58  29 E8        29.95F                  
WINK           SUNNY     95  59  30 SE8       29.94F                  
$$
...OTHER STATIONS IN TEXAS...
  
CITY           SKY/WX    TMP DP  RH WIND       PRES   REMARKS
ABILENE        MOSUNNY   94  60  32 VRB5      29.91F                  
AMARILLO       SUNNY     91  57  31 MISG      29.99F                  
AUSTIN         PTSUNNY   93  71  48 SE12      29.86F HX 100           
BROWNSVILLE    PTSUNNY   85  78  80 E12       29.81F                  
CORPUS CHRISTI CLOUDY    83  79  88 E12       29.84F                  
DALLAS FTW     MOSUNNY   96  61  31 CALM      29.82F                  
DEL RIO        MOSUNNY   96  68  39 E14G24    29.84S HX 101           
EL PASO        MOSUNNY  102  34   9 E5        29.95F                  
HOUSTON INT    CLOUDY    88  76  67 S6        29.87F                  
LUBBOCK        MOSUNNY   96  57  27 S10       29.98F                  
SAN ANGELO     SUNNY     99  59  26 NE6       29.91F                  
SAN ANTONIO    PTSUNNY   92  70  48 S12       29.88F                  
WACO           SUNNY     97  67  37 SE7       29.84F HX 101           
WICHITA FALLS  MOSUNNY   89  50  26 NW29G41   29.83F                  
$$
...OTHER LOCATIONS IN NEW MEXICO...
  
CITY           SKY/WX    TMP DP  RH WIND       PRES   REMARKS
ALAMOGORDO     MOSUNNY  100  32   9 NW7       29.99F                  
ALBUQUERQUE    MOSUNNY   92  37  14 S8        30.08F                  
CANNON AFB     NOT AVBL                                               
CLOVIS         MOSUNNY   92  55  28 SW7       30.05F                  
HOLLOMAN AFB   SUNNY    102  35  10 NW6       30.00F                  
ROSWELL        MOSUNNY   96  55  25 S9G21     29.98F                  
RUIDOSO        MOSUNNY   86  52  30 SE7       30.25                   
SANTA FE       MOSUNNY   91  31  11 S13       30.14F                  
TRUTH OR CONSE SUNNY     99  37  11 VRB7      30.01F                  
TUCUMCARI      SUNNY     97  52  21 W7G16     29.98F                  
$$